Meteorología y climatología de Navarra
Datos de la estación - Meteo Navarra

Estación de Iñarbegi GN

Altitud 585 m.


Datos desde el 09/11/2018 hasta el 10/11/2018 en horario solar
Los datos son PROVISIONALES

Anterior Página 1 de 1 Siguiente Descargar: Formato para Excel 2000 o superior   Formato csv   Formato para OpenOffice Calc
Fecha Temperatura Humedad relativa Radiación global Insolación Precipitación Velocidad viento 10 m Velocidad viento 10 m Dirección viento 10 m
ºC % W/m² s l/m² m/s km/h º
09/11/2018 0:00 8.5 86 - - - - 0.9 - - - - - -
09/11/2018 0:10 8.3 88 - - - - 1.0 - - - - - -
09/11/2018 0:20 8.3 89 - - - - 0.8 - - - - - -
09/11/2018 0:30 7.9 94 - - - - 0.7 - - - - - -
09/11/2018 0:40 7.8 97 - - - - 0.4 - - - - - -
09/11/2018 0:50 7.8 97 - - - - 1.0 - - - - - -
09/11/2018 1:00 7.7 99 - - - - 1.0 - - - - - -
09/11/2018 1:10 7.6 100 - - - - 0.5 - - - - - -
09/11/2018 1:20 7.5 100 - - - - 0.2 - - - - - -
09/11/2018 1:30 7.5 100 - - - - 0.1 - - - - - -
09/11/2018 1:40 7.5 100 - - - - 0.2 - - - - - -
09/11/2018 1:50 7.4 100 - - - - 0.0 - - - - - -
09/11/2018 2:00 7.4 100 - - - - 0.0 - - - - - -
09/11/2018 2:10 7.4 100 - - - - 0.0 - - - - - -
09/11/2018 2:20 7.4 100 - - - - 0.0 - - - - - -
09/11/2018 2:30 7.4 100 - - - - 0.0 - - - - - -
09/11/2018 2:40 7.4 100 - - - - 0.0 - - - - - -
09/11/2018 2:50 7.5 100 - - - - 0.0 - - - - - -
09/11/2018 3:00 7.4 100 - - - - 0.0 - - - - - -
09/11/2018 3:10 7.4 100 - - - - 0.1 - - - - - -
09/11/2018 3:20 7.5 100 - - - - 0.3 - - - - - -
09/11/2018 3:30 7.4 100 - - - - 0.5 - - - - - -
09/11/2018 3:40 7.3 100 - - - - 0.1 - - - - - -
09/11/2018 3:50 7.3 100 - - - - 0.5 - - - - - -
09/11/2018 4:00 7.3 100 - - - - 0.5 - - - - - -
09/11/2018 4:10 7.2 100 - - - - 0.2 - - - - - -
09/11/2018 4:20 7.2 100 - - - - 0.5 - - - - - -
09/11/2018 4:30 7.2 100 - - - - 0.4 - - - - - -
09/11/2018 4:40 7.2 100 - - - - 0.5 - - - - - -
09/11/2018 4:50 7.2 100 - - - - 0.2 - - - - - -
09/11/2018 5:00 7.2 100 - - - - 0.5 - - - - - -
09/11/2018 5:10 7.2 100 - - - - 0.1 - - - - - -
09/11/2018 5:20 7.2 100 - - - - 0.1 - - - - - -
09/11/2018 5:30 7.2 100 - - - - 0.0 - - - - - -
09/11/2018 5:40 7.1 100 - - - - 0.0 - - - - - -
09/11/2018 5:50 7.1 100 - - - - 0.0 - - - - - -
09/11/2018 6:00 7.1 100 - - - - 0.1 - - - - - -
09/11/2018 6:10 7.1 100 - - - - 0.0 - - - - - -
09/11/2018 6:20 7.1 100 - - - - 0.0 - - - - - -
09/11/2018 6:30 7.1 100 - - - - 0.0 - - - - - -
09/11/2018 6:40 7.1 100 - - - - 0.0 - - - - - -
09/11/2018 6:50 7.1 100 - - - - 0.0 - - - - - -
09/11/2018 7:00 7.1 100 - - - - 0.0 - - - - - -
09/11/2018 7:10 7.1 100 - - - - 0.0 - - - - - -
09/11/2018 7:20 7.1 100 - - - - 0.0 - - - - - -
09/11/2018 7:30 7.1 100 - - - - 0.0 - - - - - -
09/11/2018 7:40 7.1 100 - - - - 0.0 - - - - - -
09/11/2018 7:50 7.1 100 - - - - 0.0 - - - - - -
09/11/2018 8:00 7.1 100 - - - - 0.0 - - - - - -
09/11/2018 8:10 7.3 100 - - - - 0.0 - - - - - -
09/11/2018 8:20 7.3 100 - - - - 0.0 - - - - - -
09/11/2018 8:30 7.5 100 - - - - 0.0 - - - - - -
09/11/2018 8:40 7.5 100 - - - - 0.0 - - - - - -
09/11/2018 8:50 7.6 100 - - - - 0.0 - - - - - -
09/11/2018 9:00 7.6 100 - - - - 0.0 - - - - - -
09/11/2018 9:10 7.5 100 - - - - 0.0 - - - - - -
09/11/2018 9:20 7.6 100 - - - - 0.0 - - - - - -
09/11/2018 9:30 7.7 100 - - - - 0.0 - - - - - -
09/11/2018 9:40 7.7 100 - - - - 0.1 - - - - - -
09/11/2018 9:50 7.7 100 - - - - 0.1 - - - - - -
09/11/2018 10:00 7.9 100 - - - - 0.0 - - - - - -
09/11/2018 10:10 7.8 100 - - - - 0.1 - - - - - -
09/11/2018 10:20 7.8 100 - - - - 0.0 - - - - - -
09/11/2018 10:30 7.7 100 - - - - 0.0 - - - - - -
09/11/2018 10:40 7.7 100 - - - - 0.0 - - - - - -
09/11/2018 10:50 8.1 99 - - - - 0.0 - - - - - -
09/11/2018 11:00 8.4 97 - - - - 0.0 - - - - - -
09/11/2018 11:10 8.7 96 - - - - 0.0 - - - - - -
09/11/2018 11:20 9.2 93 - - - - 0.0 - - - - - -
09/11/2018 11:30 8.9 90 - - - - 0.0 - - - - - -
09/11/2018 11:40 8.7 88 - - - - 0.0 - - - - - -
09/11/2018 11:50 9.7 89 - - - - 0.0 - - - - - -
09/11/2018 12:00 10.6 85 - - - - 0.0 - - - - - -
09/11/2018 12:10 11.1 79 - - - - 0.0 - - - - - -
09/11/2018 12:20 11.5 78 - - - - 0.0 - - - - - -
09/11/2018 12:30 11.2 74 - - - - 0.0 - - - - - -
09/11/2018 12:40 10.6 75 - - - - 0.0 - - - - - -
09/11/2018 12:50 10.3 76 - - - - 0.0 - - - - - -
09/11/2018 13:00 10.7 74 - - - - 0.0 - - - - - -
09/11/2018 13:10 11.2 72 - - - - 0.0 - - - - - -
09/11/2018 13:20 12.0 69 - - - - 0.0 - - - - - -
09/11/2018 13:30 12.2 69 - - - - 0.0 - - - - - -
09/11/2018 13:40 11.5 70 - - - - 0.0 - - - - - -
09/11/2018 13:50 11.2 71 - - - - 0.0 - - - - - -
09/11/2018 14:00 11.1 70 - - - - 0.0 - - - - - -
09/11/2018 14:10 11.3 70 - - - - 0.0 - - - - - -
09/11/2018 14:20 11.5 69 - - - - 0.0 - - - - - -
09/11/2018 14:30 12.1 67 - - - - 0.0 - - - - - -
09/11/2018 14:40 12.7 66 - - - - 0.0 - - - - - -
09/11/2018 14:50 12.9 65 - - - - 0.0 - - - - - -
09/11/2018 15:00 12.8 64 - - - - 0.0 - - - - - -
09/11/2018 15:10 12.7 63 - - - - 0.0 - - - - - -
09/11/2018 15:20 12.2 64 - - - - 0.0 - - - - - -
09/11/2018 15:30 11.2 66 - - - - 0.0 - - - - - -
09/11/2018 15:40 10.9 68 - - - - 0.0 - - - - - -
09/11/2018 15:50 10.8 67 - - - - 0.0 - - - - - -
09/11/2018 16:00 10.8 65 - - - - 0.0 - - - - - -
09/11/2018 16:10 10.7 65 - - - - 0.0 - - - - - -
09/11/2018 16:20 10.5 65 - - - - 0.0 - - - - - -
09/11/2018 16:30 10.6 63 - - - - 0.0 - - - - - -
09/11/2018 16:40 10.6 60 - - - - 0.0 - - - - - -
09/11/2018 16:50 10.4 58 - - - - 0.0 - - - - - -
09/11/2018 17:00 10.4 57 - - - - 0.0 - - - - - -
09/11/2018 17:10 10.2 58 - - - - 0.0 - - - - - -
09/11/2018 17:20 10.1 58 - - - - 0.0 - - - - - -
09/11/2018 17:30 10.0 58 - - - - 0.0 - - - - - -
09/11/2018 17:40 10.1 58 - - - - 0.0 - - - - - -
09/11/2018 17:50 10.1 59 - - - - 0.0 - - - - - -
09/11/2018 18:00 10.0 60 - - - - 0.0 - - - - - -
09/11/2018 18:10 10.0 61 - - - - 0.0 - - - - - -
09/11/2018 18:20 10.1 61 - - - - 0.0 - - - - - -
09/11/2018 18:30 10.1 61 - - - - 0.0 - - - - - -
09/11/2018 18:40 10.2 61 - - - - 0.0 - - - - - -
09/11/2018 18:50 10.2 62 - - - - 0.0 - - - - - -
09/11/2018 19:00 10.2 63 - - - - 0.0 - - - - - -
09/11/2018 19:10 10.1 64 - - - - 0.0 - - - - - -
09/11/2018 19:20 10.1 66 - - - - 0.0 - - - - - -
09/11/2018 19:30 10.1 67 - - - - 0.0 - - - - - -
09/11/2018 19:40 10.0 68 - - - - 0.0 - - - - - -
09/11/2018 19:50 9.9 69 - - - - 0.0 - - - - - -
09/11/2018 20:00 9.9 70 - - - - 0.0 - - - - - -
09/11/2018 20:10 9.9 70 - - - - 0.0 - - - - - -
09/11/2018 20:20 10.0 71 - - - - 0.0 - - - - - -
09/11/2018 20:30 9.9 71 - - - - 0.0 - - - - - -
09/11/2018 20:40 9.9 72 - - - - 0.0 - - - - - -
09/11/2018 20:50 9.8 73 - - - - 0.0 - - - - - -
09/11/2018 21:00 9.9 73 - - - - 0.0 - - - - - -
09/11/2018 21:10 9.9 74 - - - - 0.0 - - - - - -
09/11/2018 21:20 10.0 74 - - - - 0.0 - - - - - -
09/11/2018 21:30 10.1 73 - - - - 0.0 - - - - - -
09/11/2018 21:40 10.2 73 - - - - 0.0 - - - - - -
09/11/2018 21:50 10.3 73 - - - - 0.0 - - - - - -
09/11/2018 22:00 10.5 72 - - - - 0.0 - - - - - -
09/11/2018 22:10 10.5 71 - - - - 0.0 - - - - - -
09/11/2018 22:20 10.5 71 - - - - 0.0 - - - - - -
09/11/2018 22:30 10.6 71 - - - - 0.0 - - - - - -
09/11/2018 22:40 11.0 69 - - - - 0.0 - - - - - -
09/11/2018 22:50 10.9 68 - - - - 0.0 - - - - - -
09/11/2018 23:00 11.3 66 - - - - 0.0 - - - - - -
09/11/2018 23:10 11.7 63 - - - - 0.0 - - - - - -
09/11/2018 23:20 11.7 63 - - - - 0.0 - - - - - -
09/11/2018 23:30 11.1 64 - - - - 0.0 - - - - - -
09/11/2018 23:40 10.9 64 - - - - 0.0 - - - - - -
09/11/2018 23:50 11.0 63 - - - - 0.0 - - - - - -
Anterior Página 1 de 1 Siguiente

NOTA: Tipo de datos según el color:
   - Valores diarios o 10 minutos correctos
   - Valores diarios calculados a partir de un número de datos 10 minutos menor que 144 y mayor que 120, o de un número de datos semihorarios menor que 48 y mayor que 40 (caso de las estaciones de Riegos de Navarra y del MARM)
   - Valores diez minutos estimados


Contacto        Enlaces        Aviso legal